Location: ????????
(60.5616°N, 46.8254°E)
Time: 08:07:57
(UTC+00:00)

Lacrosse 4 Rocket - Pass Details

Date: 18 February 2020
Orbit: 537 x 622 km, 68.0° (Epoch: 09 April)

Event Time Altitude Azimuth Distance (km) Brightness Sun altitude
Rises 17:05:42 0° 231° (SW) 2,772 5.3 -24.5°
Reaches altitude 10° 17:07:53 10° 232° (SW) 1,891 4.4 -24.8°
Enters shadow 17:11:33 65° 249° (WSW) 651 1.7 -25.2°
